TimeCST,TemperatureF,Dew PointF,Humidity,Sea Level PressureIn,VisibilityMPH,Wind Direction,Wind SpeedMPH,Gust SpeedMPH,PrecipitationIn,Events,Conditions,WindDirDegrees,DateUTC
12:15 AM,6.8,3.2,85,30.40,3.0,ESE,12.7,-,N/A,Snow,Light Snow,120,2013-12-08 06:15:00
12:35 AM,6.8,3.2,85,30.38,3.0,ESE,12.7,-,N/A,Snow,Light Snow,120,2013-12-08 06:35:00
12:55 AM,6.8,3.2,85,30.36,3.0,ESE,13.8,-,N/A,Snow,Light Snow,120,2013-12-08 06:55:00
1:15 AM,6.8,3.2,85,30.35,3.0,ESE,11.5,-,N/A,Rain,Freezing Rain,110,2013-12-08 07:15:00
1:35 AM,6.8,3.2,85,30.33,3.0,ESE,15.0,-,N/A,Snow,Light Snow,120,2013-12-08 07:35:00
1:55 AM,6.8,3.2,85,30.31,4.0,ESE,15.0,-,N/A,Rain,Freezing Rain,110,2013-12-08 07:55:00
2:15 AM,6.8,3.2,85,30.31,3.0,ESE,17.3,-,N/A,Snow,Light Snow,110,2013-12-08 08:15:00
2:35 AM,6.8,3.2,85,30.30,3.0,ESE,13.8,-,N/A,Snow,Light Snow,110,2013-12-08 08:35:00
2:55 AM,6.8,3.2,85,30.29,2.5,ESE,16.1,-,N/A,Snow,Light Snow,120,2013-12-08 08:55:00
3:15 AM,8.6,3.2,79,30.29,1.8,ESE,15.0,-,N/A,Snow,Light Snow,120,2013-12-08 09:15:00
3:35 AM,8.6,3.2,79,30.27,1.8,SE,16.1,-,N/A,Snow,Light Snow,130,2013-12-08 09:35:00
3:55 AM,8.6,5.0,85,30.27,2.5,SE,12.7,19.6,N/A,Snow,Light Snow,130,2013-12-08 09:55:00
4:15 AM,8.6,5.0,85,30.25,2.5,SE,15.0,-,N/A,Snow,Light Snow,130,2013-12-08 10:15:00
4:35 AM,8.6,5.0,85,30.23,3.0,ESE,13.8,-,N/A,Rain,Freezing Rain,120,2013-12-08 10:35:00
4:55 AM,8.6,5.0,85,30.22,3.0,ESE,15.0,-,N/A,Snow,Light Snow,120,2013-12-08 10:55:00
5:15 AM,8.6,5.0,85,30.21,2.5,ESE,13.8,20.7,N/A,Snow,Light Snow,110,2013-12-08 11:15:00
5:35 AM,8.6,5.0,85,30.21,3.0,ESE,11.5,19.6,N/A,Rain,Freezing Rain,120,2013-12-08 11:35:00
5:55 AM,8.6,5.0,85,30.20,4.0,ESE,13.8,-,N/A,Rain,Freezing Rain,120,2013-12-08 11:55:00
6:15 AM,8.6,5.0,85,30.18,5.0,ESE,12.7,-,N/A,Rain,Freezing Rain,110,2013-12-08 12:15:00
6:35 AM,8.6,5.0,85,30.17,4.0,ESE,15.0,20.7,N/A,Rain,Freezing Rain,110,2013-12-08 12:35:00
6:55 AM,8.6,5.0,85,30.17,4.0,ESE,13.8,-,N/A,Rain,Freezing Rain,110,2013-12-08 12:55:00
7:15 AM,8.6,5.0,85,30.16,7.0,ESE,16.1,21.9,N/A,Rain,Freezing Rain,110,2013-12-08 13:15:00
7:35 AM,8.6,5.0,85,30.16,1.8,ESE,15.0,-,N/A,Snow,Light Snow,110,2013-12-08 13:35:00
7:55 AM,8.6,5.0,85,30.14,1.0,ESE,13.8,19.6,N/A,Snow,Light Snow,110,2013-12-08 13:55:00
8:15 AM,8.6,5.0,85,30.14,1.5,ESE,13.8,19.6,N/A,Snow,Light Snow,120,2013-12-08 14:15:00
8:35 AM,8.6,5.0,85,30.14,1.2,ESE,16.1,-,N/A,Snow,Light Snow,110,2013-12-08 14:35:00
8:55 AM,8.6,5.0,85,30.13,1.0,ESE,16.1,-,N/A,Snow,Light Snow,120,2013-12-08 14:55:00
9:15 AM,10.4,5.0,79,30.13,2.0,ESE,16.1,-,N/A,Snow,Light Snow,120,2013-12-08 15:15:00
9:35 AM,10.4,6.8,85,30.13,1.2,ESE,12.7,18.4,N/A,Snow,Light Snow,110,2013-12-08 15:35:00
9:55 AM,10.4,6.8,85,30.12,1.0,ESE,12.7,-,N/A,Snow,Light Snow,110,2013-12-08 15:55:00
10:35 AM,10.4,6.8,85,30.12,1.8,ESE,15.0,-,N/A,Rain,Freezing Rain,110,2013-12-08 16:35:00
10:55 AM,10.4,6.8,85,30.11,1.0,ESE,12.7,-,N/A,Snow,Light Snow,120,2013-12-08 16:55:00
11:15 AM,12.2,6.8,79,30.10,1.8,ESE,11.5,-,N/A,Snow,Light Snow,120,2013-12-08 17:15:00
11:35 AM,12.2,8.6,85,30.08,1.5,ESE,11.5,-,N/A,Snow,Light Snow,120,2013-12-08 17:35:00
11:55 AM,12.2,8.6,85,30.07,1.5,SE,11.5,-,N/A,Snow,Light Snow,130,2013-12-08 17:55:00
12:15 PM,12.2,8.6,85,30.06,2.5,ESE,10.4,-,N/A,Snow,Light Snow,120,2013-12-08 18:15:00
12:35 PM,12.2,8.6,85,30.04,4.0,ESE,11.5,-,N/A,Snow,Light Snow,120,2013-12-08 18:35:00
12:55 PM,12.2,8.6,85,30.03,6.0,ESE,11.5,-,N/A,Snow,Light Snow,120,2013-12-08 18:55:00
1:15 PM,14.0,8.6,79,30.02,7.0,SE,10.4,-,N/A,,Overcast,130,2013-12-08 19:15:00
1:35 PM,14.0,8.6,79,30.01,7.0,ESE,10.4,-,N/A,Snow,Light Snow,120,2013-12-08 19:35:00
1:55 PM,14.0,8.6,79,30.00,5.0,SE,6.9,-,N/A,Snow,Light Snow,130,2013-12-08 19:55:00
2:15 PM,14.0,8.6,79,29.99,4.0,SE,6.9,-,N/A,Snow,Light Snow,130,2013-12-08 20:15:00
2:35 PM,14.0,10.4,86,29.98,4.0,ESE,6.9,-,N/A,Snow,Light Snow,110,2013-12-08 20:35:00
2:55 PM,14.0,10.4,86,29.98,6.0,SE,5.8,-,N/A,Snow,Light Snow,130,2013-12-08 20:55:00
3:15 PM,14.0,10.4,86,29.98,6.0,SE,4.6,-,N/A,Snow,Light Snow,140,2013-12-08 21:15:00
3:35 PM,14.0,10.4,86,29.98,4.0,East,4.6,-,N/A,Snow,Light Snow,100,2013-12-08 21:35:00
3:55 PM,14.0,10.4,86,29.99,3.0,Calm,Calm,-,N/A,Snow,Light Snow,0,2013-12-08 21:55:00
4:15 PM,14.0,10.4,86,29.99,4.0,Calm,Calm,-,N/A,Snow,Light Snow,0,2013-12-08 22:15:00
4:35 PM,14.0,10.4,86,29.98,3.0,Calm,Calm,-,N/A,Snow,Light Snow,0,2013-12-08 22:35:00
4:55 PM,14.0,10.4,86,29.98,4.0,Calm,Calm,-,N/A,Snow,Light Snow,0,2013-12-08 22:55:00
5:15 PM,14.0,10.4,86,29.98,4.0,North,3.5,-,N/A,Snow,Light Snow,350,2013-12-08 23:15:00
5:35 PM,14.0,10.4,86,29.98,6.0,NNW,5.8,-,N/A,Snow,Light Snow,340,2013-12-08 23:35:00
5:55 PM,12.2,10.4,92,29.99,7.0,NNW,5.8,-,N/A,Snow,Light Snow,330,2013-12-08 23:55:00
6:15 PM,12.2,10.4,92,29.99,9.0,NNW,5.8,-,N/A,,Overcast,330,2013-12-09 00:15:00
6:35 PM,12.2,10.4,92,30.00,10.0,NNW,4.6,-,N/A,Snow,Light Snow,330,2013-12-09 00:35:00
6:55 PM,12.2,10.4,92,29.99,10.0,NNW,4.6,-,N/A,,Overcast,330,2013-12-09 00:55:00
7:15 PM,12.2,10.4,92,30.00,10.0,NNW,4.6,-,N/A,,Overcast,330,2013-12-09 01:15:00
7:35 PM,12.2,10.4,92,30.00,10.0,NW,4.6,-,N/A,,Overcast,310,2013-12-09 01:35:00
7:55 PM,12.2,10.4,92,30.01,8.0,WNW,5.8,-,N/A,Snow,Light Snow,300,2013-12-09 01:55:00
8:15 PM,12.2,10.4,92,30.02,2.0,West,6.9,-,N/A,Snow,Light Snow,280,2013-12-09 02:15:00
8:35 PM,12.2,10.4,92,30.03,3.0,West,9.2,-,N/A,Snow,Light Snow,280,2013-12-09 02:35:00
8:55 PM,12.2,10.4,92,30.03,3.0,West,9.2,-,N/A,Snow,Light Snow,280,2013-12-09 02:55:00
9:15 PM,10.4,8.6,92,30.03,4.0,WNW,10.4,-,N/A,Snow,Light Snow,290,2013-12-09 03:15:00
9:35 PM,8.6,5.0,85,30.02,8.0,WNW,9.2,-,N/A,Snow,Light Snow,300,2013-12-09 03:35:00
9:55 PM,6.8,3.2,85,30.03,10.0,WNW,9.2,-,N/A,,Mostly Cloudy,290,2013-12-09 03:55:00
10:15 PM,6.8,3.2,85,30.02,10.0,WNW,9.2,-,N/A,,Mostly Cloudy,300,2013-12-09 04:15:00
10:35 PM,6.8,3.2,85,30.02,9.0,WNW,10.4,-,N/A,Snow,Light Snow,290,2013-12-09 04:35:00
10:55 PM,5.0,1.4,85,30.03,9.0,WNW,9.2,-,N/A,,Mostly Cloudy,290,2013-12-09 04:55:00
11:15 PM,3.2,-0.4,85,30.04,9.0,WNW,9.2,-,N/A,,Clear,290,2013-12-09 05:15:00
11:35 PM,3.2,1.4,92,30.04,10.0,WNW,10.4,-,N/A,,Clear,290,2013-12-09 05:35:00
11:55 PM,3.2,-0.4,85,30.05,10.0,West,12.7,-,N/A,,Clear,280,2013-12-09 05:55:00